Weather Roundup
Issued by NWS Springfield, MO

Home | Current Version | Previous Version | Text Only | Print | Product List | Glossary On
Versions: 1 2 3 4 5 6 7 8 9 10 11 12 13 14 15 16 17 18 19 20 21 22 23 24 25 26 27 28 29 30 31 32 33 34 35 36 37 38 39 40 41 42 43 44 45 46 47 48 49 50
000
NZUS99 KSGF 221507
HRRSGF

HOURLY WEATHER
NATIONAL WEATHER SERVICE SPRINGFIELD MO
1000 AM CDT SUN APR 22 2018

......SGF CWA......

CITY           SKY/WX    TMP DP  RH WIND       PRES   REMARKS
SPRINGFIELD    LGT RAIN  53  52  96 NE12      29.96S
JOPLIN         CLOUDY    51  51 100 NE6       29.98S
WEST PLAINS    LGT RAIN  53  51  93 E10G21    30.00F FOG
ROLLA          LGT RAIN  51  48  89 E14       30.08S
OSAGE BEACH    RAIN      52  51  97 NE12      30.06F FOG
BRANSON        LGT RAIN  52  52 100 N9        29.94F

......SURROUNDING SGF CWA......

CITY           SKY/WX    TMP DP  RH WIND       PRES   REMARKS
CHANUTE        LGT RAIN  49  47  93 N9        30.05S
PARSONS        LGT RAIN  50  48  93 N8        30.04R
COFFEYVILLE    LGT RAIN  50  48  93 N10       30.02F
EMPORIA        CLOUDY    48  42  80 N13       30.10R
GROVE OK       CLOUDY    52  50  93 NW5       29.99F
ROGERS AR      LGT RAIN  52  51  97 NW6       29.96S FOG
SILOAM SPRINGS LGT RAIN  49  49 100 W9        29.97F FOG
HARRISON AR    CLOUDY    52  51  97 W6        29.95F
NEAR YELLVILLE LGT RAIN  54  52  94 NE6       29.97F

......KANSAS AND MISSOURI......

CITY           SKY/WX    TMP DP  RH WIND       PRES   REMARKS
KANSAS CTY INT LGT RAIN  48  39  71 NE13      30.14S
DOWNTOWN KC    LGT RAIN  50  40  68 NE10      30.13S
COLUMBIA       CLOUDY    53  42  66 E13       30.11F
SEDALIA        LGT RAIN  49  47  93 NE13      30.11F
ST JOSEPH      CLOUDY    52  34  50 E12       30.17S
ST LOUIS       CLOUDY    59  45  59 E13       30.14F
SPIRIT OF STL  CLOUDY    57  46  66 NE10      30.13F
KIRKSVILLE     CLOUDY    51  33  50 E10       30.20S
WICHITA        CLOUDY    49  43  80 N20       30.12R
TOPEKA         CLOUDY    51  41  68 NE8       30.13S
OLATHE         LGT RAIN  45  43  93 NE14      30.11R FOG

......TENNESSEE......

CITY           SKY/WX    TMP DP  RH WIND       PRES   REMARKS
MEMPHIS        HVY RAIN  59  59 100 E12       29.94F FOG
NASHVILLE      LGT RAIN  59  53  80 E8        30.16R

......ARKANSAS.......

CITY           SKY/WX    TMP DP  RH WIND       PRES   REMARKS
FAYETTEVILLE   LGT RAIN  50  50 100 W7        29.96S
FT SMITH       CLOUDY    51  50  96 W13       29.98S
LITTLE ROCK    CLOUDY    61  60  97 SE3       29.92S

......OKLAHOMA.......

CITY           SKY/WX    TMP DP  RH WIND       PRES   REMARKS
TULSA          CLOUDY    50  49  96 NW10      30.02R
PONCA CITY     CLOUDY    48  43  82 N15G22    30.08F
MCALESTER      CLOUDY    49  46  90 NW14      30.05S
OKLAHOMA CITY  CLOUDY    47  43  86 N17       30.09F

......IOWA............

CITY           SKY/WX    TMP DP  RH WIND       PRES   REMARKS
DES MOINES     CLOUDY    51  30  44 E10       30.26S
QUAD CITIES    FAIR      54  27  35 E18       30.29F

......ILLINOIS........

CITY           SKY/WX    TMP DP  RH WIND       PRES   REMARKS
QUINCY         CLOUDY    58  33  39 NE12      30.19F
CHICAGO        PTSUNNY   53  21  28 E9        30.36S




USA.gov is the U.S. government's official web portal to all federal, state and local government web resources and services.